Location: Unspecified
(0.0000°N, 0.0000°E)
Time: 23:58:54
(UTC+00:00)

Vanguard 2 - All Passes

Search period start: 25 January 2021 00:00
Search period end: 04 February 2021 00:00
Orbit: 553 x 2937 km, 32.9° (Epoch: 25 January)

Date Brightness Start Highest point End Pass type
(mag) Time Alt. Az. Time Alt. Az. Time Alt. Az.
25 Jan - 01:17:48 10° WNW 01:29:53 50° SSW 01:46:40 10° SE visible
25 Jan - 03:33:08 10° WSW 03:45:11 24° SSW 03:58:06 10° SSE visible
25 Jan - 05:54:48 10° SSW 06:03:10 15° S 06:10:44 10° SSE visible
25 Jan - 08:10:42 10° SSW 08:19:56 19° SSE 08:27:02 10° SE daylight
25 Jan - 10:22:13 10° SW 10:32:53 43° SSE 10:39:25 10° E daylight
25 Jan - 12:34:44 10° WSW 12:42:14 42° NW 12:47:04 10° NNE daylight
25 Jan - 21:19:44 10° NNW 21:25:57 25° NE 21:34:57 10° E night (unlit)
25 Jan - 23:26:02 10° NW 23:35:42 89° NE 23:51:37 10° SE visible
26 Jan - 01:36:34 10° W 01:48:30 39° SSW 02:04:21 10° SE visible
26 Jan - 03:53:38 10° SW 04:04:38 20° SSW 04:16:02 10° SSE visible
26 Jan - 06:14:21 10° SSW 06:22:58 15° S 06:30:36 10° SE daylight
26 Jan - 08:28:12 10° SSW 08:38:58 24° SSE 08:46:43 10° ESE daylight
26 Jan - 10:39:56 10° SW 10:51:06 62° SSE 10:57:38 10° ENE daylight
26 Jan - 12:53:45 10° W 12:59:49 25° NW 13:04:07 10° NNE daylight
26 Jan - 21:36:41 10° NNW 21:43:38 37° NE 21:54:34 10° ESE night (unlit)
26 Jan - 23:43:57 10° WNW 23:53:46 71° SSW 00:09:42 10° SE visible
27 Jan - 01:55:47 10° W 02:07:19 31° SSW 02:21:59 10° SSE visible
27 Jan - 04:14:19 10° SW 04:24:20 17° S 04:34:23 10° SSE visible
27 Jan - 06:32:59 10° SSW 06:42:38 17° S 06:50:51 10° SE daylight
27 Jan - 08:45:42 10° SSW 08:57:47 32° SSE 09:05:54 10° E daylight
27 Jan - 10:57:56 10° SW 11:09:07 90° SSE 11:15:32 10° NE daylight
27 Jan - 13:13:37 10° WNW 13:17:26 15° NW 13:20:31 10° N daylight
27 Jan - 21:53:55 10° NW 22:01:17 53° NE 22:13:35 10° ESE night (unlit)
28 Jan - 00:02:09 10° WNW 00:12:03 54° SSW 00:27:34 10° SE visible
28 Jan - 02:15:26 10° WSW 02:26:24 25° SSW 02:39:41 10° SSE visible
28 Jan - 04:34:47 10° SW 04:44:12 16° S 04:53:25 10° SSE visible
28 Jan - 06:51:03 10° SSW 07:02:07 20° SSE 07:11:04 10° ESE daylight
28 Jan - 09:03:17 10° SW 09:16:23 42° SSE 09:24:39 10° E daylight
28 Jan - 11:16:15 10° WSW 11:26:54 62° NW 11:33:09 10° NE daylight
28 Jan - 20:06:47 10° N 20:10:16 15° NE 20:14:35 10° ENE visible
28 Jan - 22:11:24 10° NW 22:19:01 75° NE 22:32:10 10° ESE night (unlit)
29 Jan - 00:20:40 10° W 00:30:32 42° SSW 00:45:17 10° SE visible
29 Jan - 02:35:31 10° WSW 02:45:44 21° SSW 02:57:33 10° SSE visible
29 Jan - 04:54:34 10° SSW 05:04:07 16° S 05:13:12 10° SE visible
29 Jan - 07:08:48 10° SSW 07:21:20 25° SSE 07:30:55 10° ESE daylight
29 Jan - 09:21:00 10° SW 09:34:46 57° SSE 09:43:01 10° ENE daylight
29 Jan - 11:34:58 10° WSW 11:44:32 41° NW 11:50:29 10° NNE daylight
29 Jan - 20:23:03 10° N 20:27:57 24° NE 20:34:55 10° E visible
29 Jan - 22:29:08 10° WNW 22:36:56 80° SW 22:50:23 10° SE visible
30 Jan - 00:39:34 10° W 00:49:14 32° SSW 01:02:54 10° SSE visible
30 Jan - 02:55:53 10° SW 03:05:20 18° S 03:15:47 10° SSE visible
30 Jan - 05:13:31 10° SSW 05:23:56 18° S 05:33:32 10° SE visible
30 Jan - 07:26:26 10° SSW 07:40:19 32° SSE 07:50:20 10° E daylight
30 Jan - 09:38:55 10° SW 09:52:55 77° SE 10:01:05 10° ENE daylight
30 Jan - 11:54:14 10° W 12:02:08 27° NW 12:07:29 10° NNE daylight
30 Jan - 20:39:57 10° NNW 20:45:33 36° NE 20:54:18 10° ESE visible
30 Jan - 22:47:09 10° WNW 22:55:02 59° SSW 23:08:20 10° SE visible
31 Jan - 00:58:54 10° WSW 01:08:09 25° SSW 01:20:30 10° SSE visible
31 Jan - 03:16:13 10° SW 03:25:07 16° S 03:34:39 10° SSE visible
31 Jan - 05:31:49 10° SSW 05:43:34 20° SSE 05:53:58 10° ESE visible
31 Jan - 07:44:03 10° SW 07:59:03 41° SSE 08:09:19 10° E daylight
31 Jan - 09:57:05 10° WSW 10:10:52 79° NW 10:18:53 10° NE daylight
31 Jan - 12:14:17 10° WNW 12:19:47 17° NW 12:24:01 10° N daylight
31 Jan - 20:57:13 10° NW 21:03:09 57° NE 21:13:06 10° ESE visible
31 Jan - 23:05:28 10° W 23:13:22 43° SSW 23:26:04 10° SE visible
01 Feb - 01:18:40 10° WSW 01:27:19 20° SSW 01:38:12 10° SSE visible
01 Feb - 03:36:03 10° SSW 03:45:01 16° S 03:54:20 10° SE visible
01 Feb - 05:49:44 10° SSW 06:02:56 25° SSE 06:14:09 10° ESE visible
01 Feb - 08:01:45 10° SW 08:17:34 53° SSE 08:27:54 10° ENE daylight
01 Feb - 10:15:36 10° WSW 10:28:39 57° NW 10:36:24 10° NE daylight
01 Feb - 12:36:51 10° NW 12:37:37 10° NW 12:38:22 10° NNW daylight
01 Feb - 19:10:24 10° NNE 19:12:41 13° NE 19:15:22 10° ENE visible
01 Feb - 21:14:47 10° NW 21:20:54 85° NE 21:31:28 10° SE visible
01 Feb - 23:24:09 10° W 23:31:55 32° SSW 23:43:38 10° SE visible
02 Feb - 01:38:50 10° SW 01:46:44 17° S 01:56:10 10° SSE visible
02 Feb - 03:55:08 10° SSW 04:04:53 17° S 04:14:46 10° SE visible
02 Feb - 06:07:26 10° SSW 06:22:03 31° SSE 06:33:54 10° E daylight
02 Feb - 08:19:35 10° SW 08:35:53 68° SSE 08:46:09 10° ENE daylight
02 Feb - 10:34:31 10° WSW 10:46:19 41° NW 10:53:43 10° NNE daylight
02 Feb - 19:26:25 10° N 19:30:20 22° NE 19:35:36 10° E visible
02 Feb - 21:32:37 10° WNW 21:38:50 65° SSW 21:49:29 10° SE visible
02 Feb - 23:43:16 10° WSW 23:50:40 24° SSW 00:01:06 10° SSE visible
03 Feb - 01:59:06 10° SSW 02:06:21 15° S 02:14:39 10° SSE visible
03 Feb - 04:13:32 10° SSW 04:24:35 19° SSE 04:35:31 10° SE visible
03 Feb - 06:25:03 10° SW 06:40:55 38° SSE 06:53:11 10° E daylight
03 Feb - 08:37:37 10° SW 08:53:59 87° SE 09:04:07 10° NE daylight
03 Feb - 10:54:00 10° W 11:04:00 28° NW 11:10:44 10° NNE daylight
03 Feb - 19:43:20 10° NNW 19:47:54 37° NE 19:54:45 10° ESE visible
03 Feb - 21:50:46 10° W 21:57:01 44° SSW 22:07:14 10° SE visible
